Location: Siratepeler Tepesi
(39.1042°N, 32.0781°E)
Time: 00:18:50
(UTC+00:00)

Okean 1-7 - Pass Details

Date: 11 April 2026
Orbit: 564 x 588 km, 82.5° (Epoch: 11 May)

Event Time Altitude Azimuth Distance (km) Brightness Sun altitude
Rises 16:47:10 0° 0° (N) 2,769 6.6 -5.0°
Reaches altitude 10° 16:49:28 10° 8° (N) 1,866 5.6 -5.4°
Maximum altitude 16:53:21 40° 79° (ENE) 845 3.4 -6.2°
Drops below altitude 10° 16:57:11 10° 149° (SSE) 1,852 5.1 -6.9°
Sets 16:59:27 0° 157° (SSE) 2,744 6.0 -7.3°
